Вернуться в каталог

HYDROGNSS-2

АктивенНаукаSSO
NORAD 66763·PAYLOAD·🇪🇺 EU

Запущен Nov 28, 2025 с Vandenberg Space Force Base

Loading…

Ближайшие Пролёты (ближайшие 24 часа)

TLE

СвежийSource: Space-Track

Эпоха: Sep 14, 2026, 11:08 UTC

1 66763U 25276DB  26257.46434490  .00002253  00000-0  13524-3 0  9996
2 66763  97.4125 327.2793 0012322  52.6046 307.6305 15.11852600 43835

Отслеживайте HYDROGNSS-2 в реальном времени с AllMySat

Download on the App Store